Location: Sydney
(46.1500°N, 60.1670°W)
Time: 10:48:44
(UTC-03:00)

Iridium 90 - Visible Passes

Search period start: 23 July 2014 00:00
Search period end: 02 August 2014 00:00
Orbit: 748 x 749 km, 86.4° (Epoch: 22 July)

Date Brightness Start Highest point End Pass type
(mag) Time Alt. Az. Time Alt. Az. Time Alt. Az.
23 Jul 5.5 21:19:31 10° N 21:24:37 80° E 21:29:40 10° S visible
23 Jul 8.1 23:01:38 10° NW 23:03:59 13° WNW 23:06:20 10° WSW visible
24 Jul 7.4 22:18:08 10° NNW 22:22:22 28° W 22:26:36 10° SW visible
25 Jul 6.1 21:35:34 10° N 21:40:33 58° W 21:45:30 10° SSW visible
26 Jul 8.1 22:35:01 10° NW 22:38:03 16° WNW 22:41:05 10° WSW visible
27 Jul 7.2 21:51:53 10° NNW 21:56:23 33° W 22:00:52 10° SW visible
28 Jul 5.8 21:09:27 10° N 21:14:31 71° W 21:19:33 10° S visible
29 Jul 8.0 22:08:33 10° NW 22:12:06 20° WNW 22:15:39 10° WSW visible
30 Jul 6.9 21:25:40 10° NNW 21:30:23 40° W 21:35:05 10° SSW visible
31 Jul 8.5 22:26:22 10° WNW 22:27:42 11° WNW 22:29:02 10° W visible
01 Aug 7.9 21:42:11 10° NNW 21:46:08 23° W 21:50:05 10° SW visible
